DateTimeUTC,F1_A11,F1_S11,BsB_S11,BsG_S11,BsR_S11,BbsB_S11,BbsG_S11,BbsR_S11,BaB_A11,BaG_A11,BaR_A11,Tu_S11,T_S11,Uu_S11,U_S11,P_S11,T1_A11
2021-06-29T02:00:00Z,00000200,20000000,,,,,,,0000.40,0000.14,-000.12,18.9,25.7,08.3,05.5,0664.9,31.2
2021-06-29T02:01:00Z,00000200,20000000,,,,,,,0000.23,0000.41,0000.19,18.9,25.7,08.3,05.5,0664.9,31.2
2021-06-29T02:02:00Z,00000200,20000000,,,,,,,0000.43,0000.24,0000.54,18.9,25.7,08.3,05.5,0664.8,31.2
2021-06-29T02:03:00Z,00000200,60000000,,,,,,,-000.12,0000.04,-000.16,18.9,25.7,08.3,05.5,0664.8,31.2
2021-06-29T02:04:00Z,00000200,40000000,0000.47,0000.24,0000.30,0000.44,-000.02,0000.19,-000.00,0000.18,0000.25,19.1,25.6,08.9,06.0,0665.7,31.2
2021-06-29T02:05:00Z,00000200,00000000,0000.10,0000.17,-000.07,0000.42,0000.36,-000.38,0000.29,0000.06,-000.03,19.2,25.6,08.9,06.1,0665.8,31.2
2021-06-29T02:06:00Z,00000200,00000000,-000.15,0000.20,0000.10,0000.06,-000.19,-000.19,-000.29,-000.26,-000.20,19.3,25.5,09.0,06.1,0665.9,31.2
2021-06-29T02:07:00Z,00000200,00000000,-000.00,0000.08,-000.05,-000.14,0000.13,-000.22,0000.21,-000.05,-000.07,19.2,25.6,09.0,06.2,0665.8,31.2
2021-06-29T02:08:00Z,00000200,00000000,0000.53,0000.20,0000.05,0000.13,0000.18,-000.13,-000.18,0000.16,0000.08,19.2,25.5,09.1,06.2,0665.9,31.2
2021-06-29T02:09:00Z,00000200,00000000,0000.57,-000.31,-000.15,-000.01,-000.03,-000.18,0000.11,-000.04,0000.04,19.2,25.5,09.1,06.2,0665.9,31.2
2021-06-29T02:10:00Z,00000200,00000000,0000.84,-000.03,0000.25,0000.05,0000.43,-000.06,-000.26,-000.14,0000.10,19.2,25.5,09.1,06.2,0665.8,31.2
2021-06-29T02:11:00Z,00000200,00000000,0000.08,0000.16,-000.02,0000.53,0000.28,0000.08,0000.25,0000.03,0000.04,19.1,25.5,09.2,06.3,0665.8,31.2
2021-06-29T02:12:00Z,00000200,00000000,0000.32,0000.18,-000.24,0000.01,0000.22,-000.14,0000.11,0000.11,-000.16,19.1,25.5,09.3,06.3,0665.8,31.2
2021-06-29T02:13:00Z,00000200,00000000,0000.16,0000.03,-000.16,0000.20,0000.22,0000.11,-000.30,-000.03,0000.25,19.1,25.4,09.5,06.4,0665.8,31.2
2021-06-29T02:14:00Z,00000200,00000000,0000.29,0000.12,0000.16,-000.17,0000.12,0000.13,0000.56,0000.18,-000.01,19.1,25.4,09.4,06.4,0665.8,31.2
2021-06-29T02:15:00Z,00000200,00000000,0000.41,0000.29,0000.32,0000.18,0000.18,0000.24,-000.21,-000.04,-000.02,19.1,25.4,09.5,06.5,0665.7,31.2
2021-06-29T02:16:00Z,00000200,00000000,0000.43,0000.01,-000.34,0000.46,-000.34,-000.13,0000.36,-000.05,-000.20,19.0,25.4,09.6,06.5,0665.7,31.1
2021-06-29T02:17:00Z,00000200,00000000,-000.35,0000.14,0000.10,0000.38,-000.08,0000.05,-000.30,0000.51,0000.60,19.1,25.4,09.6,06.5,0665.7,31.1
2021-06-29T02:18:00Z,00000200,00000000,0000.67,0000.32,0000.08,0000.40,0000.00,0000.10,0001.00,0000.26,-000.05,19.1,25.4,09.7,06.6,0665.8,31.2
2021-06-29T02:19:00Z,00000200,00000000,0001.14,0000.50,0000.50,0000.27,0000.22,-000.19,-000.56,-000.16,0000.10,19.2,25.4,09.6,06.6,0665.7,31.2
2021-06-29T02:20:00Z,00000200,00000000,0000.03,0000.57,-000.05,-000.00,0000.22,0000.06,0000.12,0000.04,-000.05,19.2,25.5,09.6,06.6,0665.7,31.2
2021-06-29T02:21:00Z,00000200,00000000,0000.26,0000.04,0000.19,0000.11,0000.18,-000.08,0000.06,0000.15,0000.16,19.2,25.5,09.7,06.6,0665.7,31.2
2021-06-29T02:22:00Z,00000200,00000000,0000.76,0000.07,0000.04,-000.01,0000.03,-000.04,-000.15,-000.27,-000.02,19.3,25.5,09.6,06.6,0665.7,31.2
2021-06-29T02:23:00Z,00000200,00000000,0000.60,0000.17,0000.25,0000.41,-000.14,-000.22,0000.02,0000.10,-000.27,19.3,25.5,09.5,06.5,0665.7,31.2
2021-06-29T02:24:00Z,00000200,00000000,0000.59,0000.05,-000.00,0000.31,0000.03,-000.29,-000.08,-000.18,0000.23,19.2,25.5,09.6,06.6,0665.7,31.2
2021-06-29T02:25:00Z,00000200,00000000,0000.57,0000.43,0000.31,0000.40,-000.12,0000.02,0000.39,0000.12,-000.03,19.2,25.5,09.6,06.6,0665.7,31.2
2021-06-29T02:26:00Z,00000200,00000000,0000.28,0000.24,0000.30,0000.05,-000.12,0000.05,-000.25,0000.11,-000.22,19.2,25.5,09.6,06.6,0665.8,31.2
2021-06-29T02:27:00Z,00000200,00000000,0000.00,0000.24,0000.27,0000.12,0000.12,-000.31,-000.17,-000.15,-000.02,19.2,25.4,09.6,06.6,0665.7,31.2
2021-06-29T02:28:00Z,00000200,00000000,0000.39,0000.24,-000.10,0000.32,-000.12,-000.05,0000.30,0000.17,-000.15,19.1,25.4,09.7,06.6,0665.8,31.2
2021-06-29T02:29:00Z,00000200,00000000,0000.13,0000.06,0000.06,0000.03,0000.10,0000.10,-000.26,-000.10,0000.62,19.1,25.4,09.7,06.6,0665.7,31.2
2021-06-29T02:30:00Z,00000200,00000000,0000.76,0000.05,0000.38,0000.09,0000.13,0000.07,0000.06,-000.04,-000.54,19.1,25.4,09.7,06.6,0665.8,31.2
2021-06-29T02:31:00Z,00000200,00000000,0000.63,-000.01,0000.09,-000.39,0000.08,-000.32,0000.45,0000.25,0000.64,19.0,25.4,09.7,06.6,0665.7,31.1
2021-06-29T02:32:00Z,00000200,00000000,0000.47,0000.07,0000.37,-000.05,0000.03,0000.21,-000.18,-000.00,-000.41,19.1,25.4,09.8,06.6,0665.8,31.1
2021-06-29T02:33:00Z,00000200,00000000,0000.40,0000.33,0000.07,0000.11,0000.18,0000.28,-000.12,0000.02,0000.04,19.1,25.4,09.7,06.6,0665.7,31.2
2021-06-29T02:34:00Z,00000200,00000000,0000.48,0000.07,0000.05,-000.18,0000.01,-000.15,0000.26,0000.09,-000.02,19.2,25.4,09.8,06.7,0665.8,31.2
2021-06-29T02:35:00Z,00000200,00000000,-000.21,0000.30,0000.16,0000.33,0000.16,-000.20,0000.19,-000.15,0000.07,19.2,25.4,09.7,06.6,0665.7,31.2
2021-06-29T02:36:00Z,00000200,00000000,0000.74,0000.01,0000.16,0000.34,0000.24,0000.22,-000.27,0000.22,0000.10,19.2,25.4,09.7,06.6,0665.7,31.2
2021-06-29T02:37:00Z,00000200,00000000,0000.10,0000.15,-000.17,0000.19,0000.39,0000.13,0000.20,-000.06,-000.13,19.2,25.4,09.7,06.6,0665.8,31.2
2021-06-29T02:38:00Z,00000200,00000000,0000.90,0000.14,0000.50,0000.28,0000.17,-000.02,-000.23,0000.20,0000.10,19.1,25.4,09.7,06.6,0665.7,31.2
2021-06-29T02:39:00Z,00000200,00000000,0000.70,0000.33,0000.10,0000.40,0000.37,-000.23,0000.03,-000.37,-000.06,19.1,25.4,09.7,06.6,0665.7,31.2
2021-06-29T02:40:00Z,00000200,00000000,0000.15,0000.22,0000.19,-000.19,0000.40,-000.05,-000.01,0000.13,0000.07,19.1,25.4,09.7,06.6,0665.7,31.2
2021-06-29T02:41:00Z,00000200,00000000,0000.41,0000.38,0000.02,-000.06,0000.03,0000.09,0000.06,-000.09,0000.37,19.1,25.4,09.8,06.7,0665.7,31.2
2021-06-29T02:42:00Z,00000200,00000000,0000.72,0000.39,0000.33,-000.03,0000.21,-000.04,-000.24,0000.10,-000.52,19.0,25.3,09.8,06.7,0665.7,31.2
2021-06-29T02:43:00Z,00000200,00000000,0000.58,0000.10,-000.09,-000.01,-000.04,-000.44,0000.03,-000.19,0000.05,19.0,25.3,09.8,06.7,0665.7,31.1
2021-06-29T02:44:00Z,00000200,00000000,0000.25,0000.41,0000.17,0000.09,0000.14,0000.04,0000.24,0000.18,0000.09,19.0,25.3,09.9,06.7,0665.7,31.2
2021-06-29T02:45:00Z,00000200,00000000,0000.19,0000.23,0000.20,0000.30,0000.19,-000.16,-000.34,-000.26,-000.39,19.0,25.3,09.8,06.7,0665.7,31.2
2021-06-29T02:46:00Z,00000200,00000000,-000.16,0000.27,0000.04,0000.47,-000.01,-000.05,0000.51,0000.17,0000.35,19.0,25.3,09.9,06.7,0665.6,31.1
2021-06-29T02:47:00Z,00000200,00000000,0000.88,0000.11,0000.03,-000.01,0000.23,-000.16,0000.03,0000.29,0000.12,19.0,25.3,09.9,06.7,0665.6,31.2
2021-06-29T02:48:00Z,00000200,00000000,-000.29,0000.08,0000.13,0000.07,0000.02,0000.00,0000.14,0000.16,0000.02,19.0,25.3,09.8,06.7,0665.6,31.2
2021-06-29T02:49:00Z,00000200,00000000,0000.77,0000.36,0000.03,-000.26,-000.01,0000.12,0000.06,-000.09,0000.56,19.1,25.3,09.8,06.7,0665.6,31.2
2021-06-29T02:50:00Z,00000200,00000000,0000.67,0000.14,-000.02,0000.25,-000.02,-000.05,0000.13,0000.36,-000.07,19.2,25.4,09.8,06.7,0665.6,31.2
2021-06-29T02:51:00Z,00000200,00000000,0000.56,0000.02,0000.40,0000.69,0000.15,0000.06,0000.09,-000.13,-000.23,19.2,25.4,09.8,06.7,0665.6,31.2
2021-06-29T02:52:00Z,00000200,00000000,0000.61,0000.67,0000.31,0000.19,-000.10,0000.14,-000.38,-000.41,-000.03,19.3,25.5,09.8,06.7,0665.6,31.2
2021-06-29T02:53:00Z,00000200,00000000,0000.30,0000.14,0000.13,0000.13,0000.38,-000.15,0000.01,-000.01,-000.11,19.3,25.5,09.7,06.6,0665.6,31.2
2021-06-29T02:54:00Z,00000200,00000000,0000.93,0000.44,0000.26,0000.54,0000.28,0000.09,-000.22,0000.07,-000.21,19.3,25.5,09.7,06.6,0665.6,31.2
2021-06-29T02:55:00Z,00000200,00000000,0000.05,0000.18,-000.02,-000.13,-000.14,0000.04,0000.09,-000.19,0000.00,19.2,25.4,09.7,06.6,0665.6,31.2
2021-06-29T02:56:00Z,00000200,00000000,0000.17,0000.21,0000.08,-000.07,0000.12,0000.01,0000.07,0000.32,0000.30,19.2,25.4,09.7,06.7,0665.6,31.2
2021-06-29T02:57:00Z,00000200,40000000,,,,,,,-000.21,-000.04,-000.28,19.2,25.4,09.5,06.5,0665.6,31.2
2021-06-29T02:58:00Z,00000200,60000000,,,,,,,0000.19,-000.22,0000.11,18.9,25.5,09.7,06.5,0664.6,31.2
2021-06-29T02:59:00Z,00000200,20000000,,,,,,,-000.07,-000.11,-000.03,18.9,25.6,09.8,06.5,0664.6,31.2
